,,PA_Meas_PMT16A,,PR_Meas_QMR101_102,,RH_Meas_QMH101,,SR_Meas_QMS101,,TA_Meas_QMH101,,GenWind,,GenWind,
time,status,PA,status,PR,status,RH,status,SR,status,TA,status,DirAvg,status,SpdAvg,
2015-02-05, 07:57:04,INVALID - VALUE NOT AVAILABLE,0,INVALID - VALUE NOT AVAILABLE,0,INVALID - VALUE NOT AVAILABLE,0,INVALID - VALUE NOT AVAILABLE,0,INVALID - VALUE NOT AVAILABLE,0,INVALID,360,INVALID,0,
2015-02-05, 07:59:04,VALID,919.024,VALID,0,VALID,88.7671,VALID,54.4727,VALID,20.5204,VALID,123,VALID,1.35781,
2015-02-05, 08:00:04,VALID,919.028,VALID,0,VALID,88.4774,VALID,53.3983,VALID,20.5414,VALID,123,VALID,2.4418,
2015-02-05, 08:01:04,VALID,919.034,VALID,0,VALID,88.5002,VALID,54.4727,VALID,20.5399,VALID,123,VALID,2.10039,
2015-02-05, 08:02:04,VALID,919.053,VALID,0,VALID,88.5993,VALID,50.7122,VALID,20.5609,VALID,110,VALID,1.3582,
2015-02-05, 08:03:04,VALID,919.066,VALID,0,VALID,88.4926,VALID,52.109,VALID,20.5414,VALID,126,VALID,1.95547,
2015-02-05, 08:04:04,VALID,919.064,VALID,0,VALID,88.5917,VALID,57.5885,VALID,20.5609,VALID,117,VALID,1.09336,
2015-02-05, 08:05:04,VALID,919.049,VALID,0,VALID,88.8814,VALID,67.3656,VALID,20.5609,VALID,90,VALID,1.39375,
2015-02-05, 08:06:04,VALID,919.066,VALID,0,VALID,89.0034,VALID,82.4074,VALID,20.5609,VALID,134,VALID,0.805078,
2015-02-05, 08:07:04,VALID,919.09,VALID,0,VALID,89.1101,VALID,107.871,VALID,20.5789,VALID,128,VALID,1.7875,
2015-02-05, 08:08:04,VALID,919.072,VALID,0,VALID,87.7074,VALID,122.268,VALID,20.6194,VALID,116,VALID,2.05898,
2015-02-05, 08:09:04,VALID,919.089,VALID,0,VALID,88.0276,VALID,100.672,VALID,20.7365,VALID,144,VALID,0.562891,
2015-02-05, 08:10:04,VALID,919.142,VALID,0,VALID,88.1267,VALID,83.5892,VALID,20.7739,VALID,143,VALID,0.477734,
2015-02-05, 08:11:04,VALID,919.147,VALID,0,VALID,86.7011,VALID,73.8121,VALID,20.795,VALID,81,VALID,2.71602,
2015-02-05, 08:12:04,VALID,919.153,VALID,0,VALID,86.9451,VALID,70.8037,VALID,20.834,VALID,138,VALID,1.84336,
2015-02-05, 08:13:04,VALID,919.167,VALID,0,VALID,86.9146,VALID,70.0516,VALID,20.873,VALID,125,VALID,0.946484,
2015-02-05, 08:14:04,VALID,919.162,VALID,0,VALID,87.1814,VALID,73.3823,VALID,20.8925,VALID,129,VALID,1.24102,
2015-02-05, 08:15:04,VALID,919.163,VALID,0,VALID,87.3186,VALID,78.8618,VALID,20.8925,VALID,137,VALID,1.69922,
2015-02-05, 08:16:04,VALID,919.148,VALID,0,VALID,87.1966,VALID,93.044,VALID,20.8925,VALID,73,VALID,1.76328,
2015-02-05, 08:17:04,VALID,919.173,VALID,0,VALID,87.2195,VALID,120.979,VALID,20.9316,VALID,111,VALID,1.03945,
2015-02-05, 08:18:04,VALID,919.165,VALID,0,VALID,87.2271,VALID,110.235,VALID,20.9511,VALID,105,VALID,1.11719,
2015-02-05, 08:19:04,VALID,919.197,VALID,0,VALID,86.5486,VALID,115.499,VALID,20.9706,VALID,98,VALID,1.85586,
2015-02-05, 08:20:04,VALID,919.167,VALID,0,VALID,86.4648,VALID,106.797,VALID,21.008,VALID,137,VALID,2.07031,
2015-02-05, 08:21:04,VALID,919.166,VALID,0,VALID,86.015,VALID,92.3994,VALID,21.008,VALID,97,VALID,1.86914,
2015-02-05, 08:22:04,VALID,919.15,VALID,0,VALID,85.7634,VALID,85.4157,VALID,21.0486,VALID,127,VALID,1.96367,
2015-02-05, 08:23:04,VALID,919.216,VALID,0,VALID,86.2056,VALID,93.2589,VALID,21.0681,VALID,97,VALID,2.07969,
2015-02-05, 08:24:04,VALID,919.208,VALID,0,VALID,85.1841,VALID,114.425,VALID,21.0681,VALID,116,VALID,2.30312,
2015-02-05, 08:25:04,VALID,919.202,VALID,0,VALID,85.1307,VALID,135.483,VALID,21.0876,VALID,97,VALID,3.13438,
2015-02-05, 08:26:04,VALID,919.221,VALID,0,VALID,85.5957,VALID,142.467,VALID,21.1055,VALID,74,VALID,1.74883,
2015-02-05, 08:27:04,VALID,919.159,VALID,0,VALID,84.8867,VALID,139.781,VALID,21.1461,VALID,110,VALID,4.21758,
2015-02-05, 08:28:04,VALID,919.242,VALID,0,VALID,84.3379,VALID,181.253,VALID,21.2047,VALID,79,VALID,0.86875,
2015-02-05, 08:29:04,VALID,919.246,VALID,0,VALID,84.376,VALID,373.251,VALID,21.2811,VALID,90,VALID,1.37812,
2015-02-05, 08:30:04,VALID,919.214,VALID,0,VALID,83.606,VALID,214.775,VALID,21.4193,VALID,120,VALID,1.60664,
2015-02-05, 08:31:04,VALID,919.227,VALID,0,VALID,83.1486,VALID,210.477,VALID,21.5168,VALID,100,VALID,2.71523,
2015-02-05, 08:32:04,VALID,919.183,VALID,0,VALID,82.6378,VALID,192.427,VALID,21.6144,VALID,99,VALID,1.69922,
2015-02-05, 08:33:04,VALID,919.238,VALID,0,VALID,81.3647,VALID,230.032,VALID,21.6518,VALID,83,VALID,3.06445,
2015-02-05, 08:34:04,VALID,919.22,VALID,0,VALID,80.8921,VALID,214.345,VALID,21.6908,VALID,76,VALID,2.77813,
2015-02-05, 08:35:04,VALID,919.209,VALID,0,VALID,80.6176,VALID,187.807,VALID,21.7688,VALID,71,VALID,3.25781,
2015-02-05, 08:36:04,VALID,919.282,VALID,0,VALID,82.2414,VALID,474.245,VALID,21.7883,VALID,118,VALID,2.60313,
2015-02-05, 08:37:04,VALID,919.263,VALID,0,VALID,81.4105,VALID,197.692,VALID,21.8274,VALID,99,VALID,1.98867,
2015-02-05, 08:38:04,VALID,919.264,VALID,0,VALID,80.1069,VALID,160.195,VALID,21.8842,VALID,113,VALID,2.32227,
2015-02-05, 08:39:04,VALID,919.265,VALID,0,VALID,81.723,VALID,140.64,VALID,21.964,VALID,117,VALID,1.6793,
2015-02-05, 08:40:04,VALID,919.245,VALID,0,VALID,82.3253,VALID,150.955,VALID,21.9444,VALID,95,VALID,1.72227,
2015-02-05, 08:41:04,VALID,919.217,VALID,0,VALID,81.8831,VALID,170.831,VALID,21.9054,VALID,117,VALID,1.45234,
2015-02-05, 08:42:04,VALID,919.294,VALID,0,VALID,82.3176,VALID,168.897,VALID,21.8452,VALID,122,VALID,2.42539,
2015-02-05, 08:43:04,VALID,919.265,VALID,0,VALID,82.4396,VALID,176.741,VALID,21.7883,VALID,110,VALID,1.59219,
2015-02-05, 08:44:04,VALID,919.222,VALID,0,VALID,81.1284,VALID,440.079,VALID,21.7298,VALID,146,VALID,2.43359,
2015-02-05, 08:45:04,VALID,919.3,VALID,0,VALID,81.5705,VALID,177.6,VALID,21.7688,VALID,113,VALID,1.51758,
2015-02-05, 08:46:04,VALID,919.276,VALID,0,VALID,81.075,VALID,154.93,VALID,21.7493,VALID,129,VALID,3.01797,
2015-02-05, 08:47:04,VALID,919.351,VALID,0,VALID,82.0203,VALID,152.566,VALID,21.7298,VALID,84,VALID,1.66406,
2015-02-05, 08:48:04,VALID,919.342,VALID,0,VALID,80.2593,VALID,153.104,VALID,21.6908,VALID,86,VALID,2.6832,
2015-02-05, 08:49:04,VALID,919.376,VALID,0,VALID,81.2656,VALID,133.12,VALID,21.712,VALID,106,VALID,2.71172,
2015-02-05, 08:50:04,VALID,919.378,VALID,0,VALID,80.8616,VALID,112.383,VALID,21.6518,VALID,69,VALID,0.716406,
2015-02-05, 08:51:04,VALID,919.392,VALID,0,VALID,80.9759,VALID,118.078,VALID,21.6128,VALID,86,VALID,2.67461,
2015-02-05, 08:52:04,VALID,919.427,VALID,0,VALID,81.9746,VALID,150.525,VALID,21.6144,VALID,108,VALID,0.10625,
2015-02-05, 08:53:04,VALID,919.419,VALID,0,VALID,81.784,VALID,169.65,VALID,21.6323,VALID,71,VALID,1.02734,
2015-02-05, 08:54:04,VALID,919.435,VALID,0,VALID,83.0724,VALID,174.699,VALID,21.6924,VALID,85,VALID,0.385938,
2015-02-05, 08:55:04,VALID,919.44,VALID,0,VALID,82.5159,VALID,235.189,VALID,21.712,VALID,119,VALID,1.04102,
2015-02-05, 08:56:04,VALID,919.422,VALID,0,VALID,81.4257,VALID,203.494,VALID,21.7315,VALID,112,VALID,1.10234,
2015-02-05, 08:57:04,VALID,919.434,VALID,0,VALID,82.5159,VALID,205.642,VALID,21.8095,VALID,93,VALID,0.836328,
2015-02-05, 08:58:04,VALID,919.437,VALID,0,VALID,81.0369,VALID,163.096,VALID,21.8876,VALID,85,VALID,2.12617,
2015-02-05, 08:59:04,VALID,919.446,VALID,0,VALID,79.901,VALID,152.674,VALID,21.8859,VALID,77,VALID,2.30664,
2015-02-05, 09:00:04,VALID,919.522,VALID,0,VALID,79.7638,VALID,141.5,VALID,21.9656,VALID,106,VALID,1.78086,
2015-02-05, 09:01:04,VALID,919.55,VALID,0,VALID,80.0764,VALID,131.723,VALID,21.9444,VALID,93,VALID,1.85664,
2015-02-05, 09:02:04,VALID,919.581,VALID,0,VALID,80.0382,VALID,119.582,VALID,21.8842,VALID,83,VALID,1.5875,
2015-02-05, 09:03:04,VALID,919.539,VALID,0,VALID,79.4665,VALID,118.078,VALID,21.8859,VALID,54,VALID,2.93984,
2015-02-05, 09:04:04,VALID,919.644,VALID,0,VALID,79.2378,VALID,122.053,VALID,21.8859,VALID,115,VALID,1.98516,
2015-02-05, 09:05:04,VALID,919.602,VALID,0,VALID,80.1069,VALID,112.383,VALID,21.8452,VALID,95,VALID,0.0894531,
2015-02-05, 09:06:04,VALID,919.639,VALID,0,VALID,79.8248,VALID,103.144,VALID,21.8469,VALID,122,VALID,3.18516,
2015-02-05, 09:07:04,VALID,919.599,VALID,0,VALID,79.375,VALID,103.573,VALID,21.8079,VALID,104,VALID,2.59297,
2015-02-05, 09:08:04,VALID,919.647,VALID,0,VALID,79.4207,VALID,105.077,VALID,21.7883,VALID,124,VALID,2.13555,
2015-02-05, 09:10:04,VALID,919.686,VALID,0,VALID,79.8934,VALID,116.359,VALID,21.7493,VALID,108,VALID,2.17305,
2015-02-05, 09:11:04,VALID,919.704,VALID,0,VALID,79.2988,VALID,111.202,VALID,21.7282,VALID,91,VALID,1.43555,
2015-02-05, 09:12:04,VALID,919.697,VALID,0,VALID,79.2073,VALID,113.243,VALID,21.7477,VALID,61,VALID,1.1668,
2015-02-05, 09:13:04,VALID,919.662,VALID,0,VALID,79.2683,VALID,115.607,VALID,21.7672,VALID,45,VALID,1.96094,
2015-02-05, 09:14:04,VALID,919.725,VALID,0,VALID,79.0548,VALID,110.772,VALID,21.7672,VALID,80,VALID,2.12773,
2015-02-05, 09:15:04,VALID,919.756,VALID,0,VALID,79.8019,VALID,100.243,VALID,21.7672,VALID,91,VALID,3.10781,
2015-02-05, 09:16:04,VALID,919.749,VALID,0,VALID,79.901,VALID,94.4408,VALID,21.7477,VALID,96,VALID,2.10469,
2015-02-05, 09:17:04,VALID,919.702,VALID,0,VALID,80.2517,VALID,97.2342,VALID,21.6875,VALID,92,VALID,2.65859,
2015-02-05, 09:18:04,VALID,919.69,VALID,0,VALID,80.7548,VALID,105.83,VALID,21.6891,VALID,139,VALID,0.670703,
2015-02-05, 09:19:04,VALID,919.712,VALID,0,VALID,81.2961,VALID,112.491,VALID,21.6306,VALID,89,VALID,0.901953,
2015-02-05, 09:20:04,VALID,919.696,VALID,0,VALID,81.1894,VALID,137.417,VALID,21.6111,VALID,97,VALID,1.5625,
2015-02-05, 09:21:04,VALID,919.746,VALID,0,VALID,81.7001,VALID,188.559,VALID,21.5721,VALID,91,VALID,2.36797,
2015-02-05, 09:22:04,VALID,919.726,VALID,0,VALID,81.4638,VALID,190.278,VALID,21.5737,VALID,70,VALID,2.82422,
2015-02-05, 09:23:04,VALID,919.725,VALID,0,VALID,80.8997,VALID,158.046,VALID,21.5916,VALID,106,VALID,0.784375,
2015-02-05, 09:24:04,VALID,919.715,VALID,0,VALID,81.5705,VALID,135.268,VALID,21.6128,VALID,68,VALID,1.7457,
2015-02-05, 09:25:04,VALID,919.73,VALID,0,VALID,81.2275,VALID,126.673,VALID,21.6518,VALID,80,VALID,1.43555,
2015-02-05, 09:26:04,VALID,919.727,VALID,0,VALID,79.9925,VALID,129.896,VALID,21.6908,VALID,84,VALID,0.549219,
2015-02-05, 09:27:04,VALID,919.711,VALID,0,VALID,80.1374,VALID,150.203,VALID,21.7298,VALID,107,VALID,0.733984,
2015-02-05, 09:28:04,VALID,919.725,VALID,0,VALID,80.6862,VALID,159.55,VALID,21.7298,VALID,122,VALID,1.49453,
2015-02-05, 09:29:04,VALID,919.703,VALID,0,VALID,80.7701,VALID,150.955,VALID,21.7103,VALID,92,VALID,1.68281,
2015-02-05, 09:30:04,VALID,919.698,VALID,0,VALID,80.4728,VALID,144.723,VALID,21.6501,VALID,90,VALID,3.26406,
2015-02-05, 09:31:04,VALID,919.706,VALID,0,VALID,81.1894,VALID,144.186,VALID,21.6323,VALID,106,VALID,2.28867,
2015-02-05, 09:32:04,VALID,919.666,VALID,0,VALID,80.7548,VALID,178.997,VALID,21.5932,VALID,82,VALID,2.74375,
2015-02-05, 09:33:04,VALID,919.711,VALID,0,VALID,80.7625,VALID,357.457,VALID,21.5754,VALID,70,VALID,2.10781,
2015-02-05, 09:34:04,VALID,919.715,VALID,0,VALID,81.5858,VALID,267.421,VALID,21.5542,VALID,76,VALID,2.0125,
2015-02-05, 09:35:04,VALID,919.702,VALID,0,VALID,81.0598,VALID,323.505,VALID,21.6518,VALID,93,VALID,1.90195,
2015-02-05, 09:36:04,VALID,919.639,VALID,0,VALID,80.7625,VALID,380.879,VALID,21.7688,VALID,70,VALID,2.0168,
2015-02-05, 09:37:04,VALID,919.704,VALID,0,VALID,80.7777,VALID,296.538,VALID,22.003,VALID,72,VALID,0.8375,
2015-02-05, 09:38:04,VALID,919.676,VALID,0,VALID,79.314,VALID,449.211,VALID,22.1574,VALID,116,VALID,0.79375,
2015-02-05, 09:39:04,VALID,919.719,VALID,0,VALID,77.5225,VALID,227.668,VALID,22.3152,VALID,87,VALID,2.04258,
2015-02-05, 09:40:04,VALID,919.746,VALID,0,VALID,78.7728,VALID,271.719,VALID,22.3135,VALID,88,VALID,2.01133,
2015-02-05, 09:41:04,VALID,919.727,VALID,0,VALID,77.5835,VALID,243.139,VALID,22.3737,VALID,80,VALID,1.04336,
2015-02-05, 09:42:04,VALID,919.77,VALID,0,VALID,77.3014,VALID,272.793,VALID,22.3525,VALID,53,VALID,2.35313,
2015-02-05, 09:43:04,VALID,919.759,VALID,0,VALID,76.9813,VALID,321.034,VALID,22.372,VALID,86,VALID,0,
2015-02-05, 09:44:04,VALID,919.775,VALID,0,VALID,77.9723,VALID,516.792,VALID,22.5494,VALID,49,VALID,0.868359,
2015-02-05, 09:45:04,VALID,919.796,VALID,0,VALID,77.0651,VALID,268.066,VALID,22.6877,VALID,95,VALID,1.03906,
2015-02-05, 09:46:04,VALID,919.73,VALID,0,VALID,74.6027,VALID,291.703,VALID,22.6665,VALID,56,VALID,2.15234,
2015-02-05, 09:47:04,VALID,919.768,VALID,0,VALID,76.2799,VALID,306.959,VALID,22.686,VALID,64,VALID,1.35312,
2015-02-05, 09:48:04,VALID,919.746,VALID,0,VALID,78.0485,VALID,278.165,VALID,22.7428,VALID,84,VALID,0.194531,
2015-02-05, 09:49:04,VALID,919.74,VALID,0,VALID,77.6216,VALID,245.396,VALID,22.8014,VALID,105,VALID,0.428516,
2015-02-05, 09:50:04,VALID,919.772,VALID,0,VALID,76.6611,VALID,244.321,VALID,22.8421,VALID,128,VALID,1.24141,
2015-02-05, 09:51:04,VALID,919.759,VALID,0,VALID,77.0422,VALID,253.991,VALID,22.725,VALID,136,VALID,0.931641,
2015-02-05, 09:52:04,VALID,919.769,VALID,0,VALID,76.6382,VALID,238.627,VALID,22.7038,VALID,127,VALID,1.11406,
2015-02-05, 09:53:04,VALID,919.772,VALID,0,VALID,77.0499,VALID,239.486,VALID,22.624,VALID,129,VALID,2.35898,
2015-02-05, 09:54:04,VALID,919.815,VALID,0,VALID,77.2404,VALID,227.345,VALID,22.6079,VALID,151,VALID,1.33984,
2015-02-05, 09:55:04,VALID,919.807,VALID,0,VALID,77.8427,VALID,209.833,VALID,22.5459,VALID,118,VALID,0.623438,
2015-02-05, 09:56:04,VALID,919.852,VALID,0,VALID,76.7144,VALID,196.402,VALID,22.5477,VALID,134,VALID,2.54336,
2015-02-05, 09:57:04,VALID,919.843,VALID,0,VALID,75.4337,VALID,195.65,VALID,22.4306,VALID,123,VALID,2.44297,
2015-02-05, 09:58:04,VALID,919.849,VALID,0,VALID,77.3777,VALID,201.774,VALID,22.3296,VALID,88,VALID,0.405859,
2015-02-05, 09:59:04,VALID,919.837,VALID,0,VALID,77.3243,VALID,237.123,VALID,22.3118,VALID,152,VALID,1.60625,
2015-02-05, 10:00:04,VALID,919.837,VALID,0,VALID,78.8642,VALID,227.775,VALID,22.3313,VALID,95,VALID,1.95117,
2015-02-05, 10:01:04,VALID,919.832,VALID,0,VALID,76.6839,VALID,221.651,VALID,22.3135,VALID,124,VALID,1.65313,
2015-02-05, 10:02:04,VALID,919.787,VALID,0,VALID,78.3154,VALID,236.693,VALID,22.3135,VALID,112,VALID,1.61094,
2015-02-05, 10:03:04,VALID,919.843,VALID,0,VALID,78.2696,VALID,261.082,VALID,22.3135,VALID,115,VALID,1.90352,
2015-02-05, 10:04:04,VALID,919.863,VALID,0,VALID,76.9889,VALID,296.43,VALID,22.2923,VALID,106,VALID,1.84375,
2015-02-05, 10:05:04,VALID,919.866,VALID,0,VALID,77.6292,VALID,280.421,VALID,22.3703,VALID,172,VALID,0.00585938,
2015-02-05, 10:06:04,VALID,919.86,VALID,0,VALID,77.4463,VALID,280.099,VALID,22.5069,VALID,134,VALID,0.453516,
2015-02-05, 10:07:04,VALID,919.892,VALID,0,VALID,75.8759,VALID,252.164,VALID,22.5086,VALID,106,VALID,1.17148,
2015-02-05, 10:08:04,VALID,919.873,VALID,0,VALID,75.3346,VALID,217.676,VALID,22.5264,VALID,89,VALID,0.0195313,
2015-02-05, 10:09:04,VALID,919.845,VALID,0,VALID,76.7373,VALID,205.965,VALID,22.5477,VALID,121,VALID,0.560938,
2015-02-05, 10:10:04,VALID,919.84,VALID,0,VALID,76.379,VALID,201.989,VALID,22.5689,VALID,65,VALID,0.136719,
2015-02-05, 10:11:04,VALID,919.824,VALID,0,VALID,76.0283,VALID,227.345,VALID,22.6062,VALID,155,VALID,0,
2015-02-05, 10:12:04,VALID,919.81,VALID,0,VALID,76.4705,VALID,212.304,VALID,22.7463,VALID,53,VALID,0.755469,
2015-02-05, 10:13:04,VALID,919.809,VALID,0,VALID,75.8835,VALID,215.742,VALID,22.6843,VALID,54,VALID,1.26367,
2015-02-05, 10:14:04,VALID,919.796,VALID,0,VALID,77.0041,VALID,235.941,VALID,22.6452,VALID,70,VALID,0.401172,
2015-02-05, 10:15:04,VALID,919.833,VALID,0,VALID,76.6687,VALID,250.768,VALID,22.6647,VALID,48,VALID,2.82422,
2015-02-05, 10:16:04,VALID,919.843,VALID,0,VALID,74.9153,VALID,241.528,VALID,22.6079,VALID,66,VALID,2.19648,
2015-02-05, 10:17:04,VALID,919.829,VALID,0,VALID,76.8135,VALID,238.519,VALID,22.5689,VALID,131,VALID,1.42109,
2015-02-05, 10:18:04,VALID,919.815,VALID,0,VALID,76.623,VALID,247.33,VALID,22.5281,VALID,154,VALID,0.965234,
2015-02-05, 10:19:04,VALID,919.814,VALID,0,VALID,75.8454,VALID,242.065,VALID,22.5477,VALID,127,VALID,1.1707,
2015-02-05, 10:20:04,VALID,919.81,VALID,0,VALID,76.5315,VALID,241.313,VALID,22.5494,VALID,69,VALID,0,
2015-02-05, 10:21:04,VALID,919.804,VALID,0,VALID,77.1871,VALID,227.345,VALID,22.4696,VALID,81,VALID,1.66875,
2015-02-05, 10:22:04,VALID,919.825,VALID,0,VALID,77.4005,VALID,205.965,VALID,22.4696,VALID,62,VALID,2.60039,
2015-02-05, 10:23:04,VALID,919.834,VALID,0,VALID,76.2799,VALID,204.998,VALID,22.4111,VALID,75,VALID,1.07852,
2015-02-05, 10:24:04,VALID,919.826,VALID,0,VALID,77.2176,VALID,231.106,VALID,22.3899,VALID,82,VALID,0,
2015-02-05, 10:25:04,VALID,919.835,VALID,0,VALID,77.37,VALID,286.223,VALID,22.4306,VALID,89,VALID,1.73711,
2015-02-05, 10:26:04,VALID,919.817,VALID,0,VALID,75.2889,VALID,291.703,VALID,22.4111,VALID,90,VALID,2.15625,
2015-02-05, 10:27:04,VALID,919.837,VALID,0,VALID,76.783,VALID,241.85,VALID,22.4501,VALID,88,VALID,1.27227,
2015-02-05, 10:28:04,VALID,919.811,VALID,0,VALID,77.5073,VALID,218.965,VALID,22.5086,VALID,86,VALID,1.87695,
2015-02-05, 10:29:04,VALID,919.82,VALID,0,VALID,76.4247,VALID,202.097,VALID,22.5086,VALID,132,VALID,2.13008,
2015-02-05, 10:30:04,VALID,919.836,VALID,0,VALID,76.3485,VALID,206.824,VALID,22.4696,VALID,129,VALID,0.659766,
2015-02-05, 10:31:04,VALID,919.816,VALID,0,VALID,77.4158,VALID,234.651,VALID,22.5086,VALID,71,VALID,1.4375,
2015-02-05, 10:32:04,VALID,919.805,VALID,0,VALID,78.1248,VALID,210.585,VALID,22.5672,VALID,60,VALID,1.11563,
2015-02-05, 10:33:04,VALID,919.763,VALID,0,VALID,75.9063,VALID,191.782,VALID,22.5086,VALID,53,VALID,2.32422,
2015-02-05, 10:34:04,VALID,919.77,VALID,0,VALID,76.3104,VALID,176.311,VALID,22.4874,VALID,59,VALID,0.676953,
2015-02-05, 10:35:04,VALID,919.795,VALID,0,VALID,77.3014,VALID,161.484,VALID,22.5086,VALID,65,VALID,1.53984,
2015-02-05, 10:36:04,VALID,919.798,VALID,0,VALID,76.1046,VALID,163.096,VALID,22.4696,VALID,65,VALID,1.33164,
2015-02-05, 10:37:04,VALID,919.784,VALID,0,VALID,75.7081,VALID,192.749,VALID,22.4501,VALID,87,VALID,1.21211,
2015-02-05, 10:38:04,VALID,919.799,VALID,0,VALID,76.2113,VALID,253.346,VALID,22.4306,VALID,54,VALID,2.0707,
2015-02-05, 10:39:04,VALID,919.762,VALID,0,VALID,74.7323,VALID,250.553,VALID,22.4501,VALID,14,VALID,1.92539,
2015-02-05, 10:40:04,VALID,919.788,VALID,0,VALID,75.4566,VALID,230.784,VALID,22.4891,VALID,74,VALID,1.46289,
2015-02-05, 10:41:04,VALID,919.798,VALID,0,VALID,76.8135,VALID,199.626,VALID,22.5689,VALID,74,VALID,0,
2015-02-05, 10:42:04,VALID,919.788,VALID,0,VALID,75.67,VALID,189.741,VALID,22.5672,VALID,84,VALID,0.305859,
2015-02-05, 10:43:04,VALID,919.801,VALID,0,VALID,74.9611,VALID,194.898,VALID,22.5281,VALID,88,VALID,2.03867,
2015-02-05, 10:44:04,VALID,919.784,VALID,0,VALID,76.2799,VALID,195.543,VALID,22.5281,VALID,68,VALID,2.32031,
2015-02-05, 10:45:04,VALID,919.822,VALID,0,VALID,73.7337,VALID,200.7,VALID,22.4679,VALID,124,VALID,1.19336,
2015-02-05, 10:46:04,VALID,919.799,VALID,0,VALID,74.7019,VALID,206.18,VALID,22.4696,VALID,128,VALID,0,
2015-02-05, 10:47:04,VALID,919.817,VALID,0,VALID,75.4032,VALID,198.336,VALID,22.5264,VALID,103,VALID,0,
2015-02-05, 10:48:04,VALID,919.822,VALID,0,VALID,75.327,VALID,167.608,VALID,22.5052,VALID,141,VALID,1.96563,
2015-02-05, 10:49:04,VALID,919.797,VALID,0,VALID,74.2292,VALID,139.781,VALID,22.4925,VALID,109,VALID,1.69805,
2015-02-05, 10:50:04,VALID,919.809,VALID,0,VALID,74.9306,VALID,124.847,VALID,22.3899,VALID,107,VALID,0.880078,
2015-02-05, 10:51:04,VALID,919.836,VALID,0,VALID,75.6243,VALID,119.797,VALID,22.3508,VALID,111,VALID,0.933594,
2015-02-05, 10:52:04,VALID,919.852,VALID,0,VALID,75.0602,VALID,118.293,VALID,22.3542,VALID,119,VALID,1.50117,
2015-02-05, 10:53:04,VALID,919.848,VALID,0,VALID,75.0983,VALID,121.516,VALID,22.3525,VALID,129,VALID,0,
2015-02-05, 10:54:04,VALID,919.852,VALID,0,VALID,76.3028,VALID,130.111,VALID,22.3916,VALID,79,VALID,0.65625,
2015-02-05, 10:55:04,VALID,919.854,VALID,0,VALID,75.2202,VALID,140.211,VALID,22.3703,VALID,79,VALID,2.44492,
2015-02-05, 10:56:04,VALID,919.825,VALID,0,VALID,75.9063,VALID,138.384,VALID,22.3101,VALID,39,VALID,0.974219,
2015-02-05, 10:57:04,VALID,919.853,VALID,0,VALID,76.3333,VALID,135.698,VALID,22.3508,VALID,77,VALID,0.785156,
2015-02-05, 10:58:04,VALID,919.833,VALID,0,VALID,76.2723,VALID,135.806,VALID,22.2728,VALID,55,VALID,3.00586,
2015-02-05, 10:59:04,VALID,919.882,VALID,0,VALID,76.6458,VALID,135.806,VALID,22.2338,VALID,139,VALID,2.03828,
2015-02-05, 11:00:04,VALID,919.885,VALID,0,VALID,77.9875,VALID,158.583,VALID,22.2142,VALID,118,VALID,0.440234,
2015-02-05, 11:01:04,VALID,919.882,VALID,0,VALID,77.675,VALID,170.724,VALID,22.2142,VALID,129,VALID,2.33516,
2015-02-05, 11:02:04,VALID,919.868,VALID,0,VALID,76.1351,VALID,164.278,VALID,22.2142,VALID,140,VALID,1.75352,
2015-02-05, 11:03:04,VALID,919.869,VALID,0,VALID,76.5696,VALID,176.848,VALID,22.1914,VALID,122,VALID,2.14375,
2015-02-05, 11:04:04,VALID,919.846,VALID,0,VALID,75.8225,VALID,207.254,VALID,22.2126,VALID,143,VALID,0.380078,
2015-02-05, 11:05:04,VALID,919.845,VALID,0,VALID,75.2507,VALID,239.379,VALID,22.2923,VALID,145,VALID,1.56289,
2015-02-05, 11:06:04,VALID,919.792,VALID,0,VALID,76.2037,VALID,238.412,VALID,22.3347,VALID,110,VALID,0.35625,
2015-02-05, 11:07:04,VALID,919.822,VALID,0,VALID,76.9203,VALID,207.684,VALID,22.3313,VALID,110,VALID,0,
2015-02-05, 11:08:04,VALID,919.823,VALID,0,VALID,75.8759,VALID,202.312,VALID,22.3899,VALID,127,VALID,0.625781,
2015-02-05, 11:09:04,VALID,919.831,VALID,0,VALID,75.9445,VALID,227.345,VALID,22.4272,VALID,120,VALID,0.689062,
2015-02-05, 11:10:04,VALID,919.831,VALID,0,VALID,75.4566,VALID,248.511,VALID,22.4679,VALID,124,VALID,0.333984,
2015-02-05, 11:11:04,VALID,919.825,VALID,0,VALID,74.9382,VALID,232.503,VALID,22.5655,VALID,71,VALID,0.845703,
2015-02-05, 11:12:04,VALID,919.832,VALID,0,VALID,76.4629,VALID,203.064,VALID,22.624,VALID,74,VALID,0.0210938,
2015-02-05, 11:13:04,VALID,919.857,VALID,0,VALID,75.1593,VALID,190.708,VALID,22.7021,VALID,37,VALID,0,
2015-02-05, 11:14:04,VALID,919.88,VALID,0,VALID,73.8709,VALID,189.849,VALID,22.8387,VALID,37,VALID,0,
2015-02-05, 11:15:04,VALID,919.869,VALID,0,VALID,74.092,VALID,203.386,VALID,22.9948,VALID,37,VALID,0,
2015-02-05, 11:16:04,VALID,919.859,VALID,0,VALID,74.1149,VALID,199.841,VALID,23.0924,VALID,62,VALID,0,
2015-02-05, 11:17:04,VALID,919.851,VALID,0,VALID,74.1149,VALID,189.096,VALID,23.1509,VALID,64,VALID,0,
2015-02-05, 11:18:04,VALID,919.843,VALID,0,VALID,73.9929,VALID,184.262,VALID,23.0906,VALID,82,VALID,0,
2015-02-05, 11:19:04,VALID,919.827,VALID,0,VALID,72.9103,VALID,179.642,VALID,23.1119,VALID,82,VALID,0,
2015-02-05, 11:20:04,VALID,919.791,VALID,0,VALID,72.5902,VALID,180.286,VALID,23.0924,VALID,114,VALID,0,
2015-02-05, 11:21:04,VALID,919.805,VALID,0,VALID,73.627,VALID,186.303,VALID,23.0533,VALID,114,VALID,0,
2015-02-05, 11:22:04,VALID,919.818,VALID,0,VALID,72.9637,VALID,189.526,VALID,23.0125,VALID,114,VALID,0,
2015-02-05, 11:23:04,VALID,919.791,VALID,0,VALID,73.0018,VALID,180.931,VALID,23.0728,VALID,114,VALID,0,
2015-02-05, 11:24:04,VALID,919.783,VALID,0,VALID,72.735,VALID,166.534,VALID,23.1314,VALID,114,VALID,0,
2015-02-05, 11:25:04,VALID,919.771,VALID,0,VALID,73.2763,VALID,149.773,VALID,23.1917,VALID,104,VALID,0,
2015-02-05, 11:26:04,VALID,919.771,VALID,0,VALID,74.0005,VALID,134.516,VALID,23.1704,VALID,104,VALID,0,
2015-02-05, 11:27:04,VALID,919.802,VALID,0,VALID,74.5418,VALID,130.541,VALID,23.2272,VALID,100,VALID,0,
2015-02-05, 11:28:04,VALID,919.783,VALID,0,VALID,74.1225,VALID,141.93,VALID,23.3478,VALID,61,VALID,0,
2015-02-05, 11:29:04,VALID,919.754,VALID,0,VALID,74.1606,VALID,155.467,VALID,23.3851,VALID,17,VALID,0,
2015-02-05, 11:30:04,VALID,919.771,VALID,0,VALID,73.7565,VALID,165.244,VALID,23.4454,VALID,11,VALID,0,
2015-02-05, 11:31:04,VALID,919.743,VALID,0,VALID,73.6879,VALID,180.071,VALID,23.5271,VALID,8,VALID,0,
2015-02-05, 11:32:04,VALID,919.764,VALID,0,VALID,73.5431,VALID,193.502,VALID,23.4614,VALID,8,VALID,0,
2015-02-05, 11:33:04,VALID,919.722,VALID,0,VALID,72.8189,VALID,206.18,VALID,23.504,VALID,8,VALID,0,
2015-02-05, 11:34:04,VALID,919.736,VALID,0,VALID,74.2749,VALID,226.916,VALID,23.4419,VALID,349,VALID,0,